Regional Weather Roundup
Issued by NWS

Home | Current Version | Previous Version | Text Only | Print | Product List | Glossary Off
Versions: 1 2 3 4 5 6 7 8 9 10 11 12 13 14 15 16 17 18 19 20 21 22 23 24 25 26 27 28 29 30 31 32 33 34 35 36 37 38 39 40 41 42 43 44 45 46 47 48 49 50

000
ASUS45 KSLC 221510
RWRUT

UTAH REGIONAL WEATHER ROUNDUP
NATIONAL WEATHER SERVICE SALT LAKE CITY UT
900 AM MDT WED MAR 22 2017

UTZ001>011-023>025-221600-

NORTHERN UTAH

CITY           SKY/WX    TMP DP  RH WIND       PRES   REMARKS
BRIGHAM CITY     N/A     50  43  76 SE7       29.91S
DUGWAY         PTSUNNY   53  41  63 NW2       29.89R
HILL AFB       CLOUDY    49  45  85 NE6       29.89F
LOGAN          RAIN      48  45  89 E18       29.92F FOG
OGDEN          CLOUDY    50  44  80 NE7       29.89F
SALT LAKE CITY PTSUNNY   54  47  77 SW5       29.88R
WENDOVER         N/A     52  37  58 N10       29.91R
HEBER CITY     LGT RAIN  46  43  87 W5        29.94S

$$

UTZ011>015-024>027-221600-

CENTRAL/NORTHEAST UTAH

CITY           SKY/WX    TMP DP  RH WIND       PRES   REMARKS
PROVO AIRPORT  LGT RAIN  54  41  62 S16       29.92R
MOAB/CANYONLAN PTSUNNY   60  27  28 SE5       29.94R
DELTA          PTSUNNY   54  32  43 S10       29.93R
PRICE          PTSUNNY   53  33  46 CALM      29.97R
ROOSEVELT      CLOUDY    52  36  54 CALM      29.98R
VERNAL         CLOUDY    52  34  50 CALM      29.95R

$$

UTZ013>016-019>022-027-221600-

SOUTHERN UTAH

CITY           SKY/WX    TMP DP  RH WIND       PRES   REMARKS
BRYCE CANYON   SUNNY     39  31  72 CALM      30.08R
CEDAR CITY     MOSUNNY   52  30  43 SW9       29.97R
MILFORD        MOSUNNY   53  38  56 W8        29.94R
ST GEORGE        N/A     62  38  40 S5        29.92R
HANKSVILLE     MOSUNNY   63  28  27 S15       29.96R
BLANDING       CLOUDY    52  27  37 CALM      30.14R

$$

REGIONAL REPORTS     COLORADO/ARIZONA

CITY           SKY/WX    TMP DP  RH WIND       PRES   REMARKS
CRAIG, CO      CLOUDY    47  34  60 W8        30.00R
GRAND JUNCTION MOSUNNY   59  31  34 SW5       29.97R
RIFLE, CO      CLOUDY    48  36  63 CALM      30.02R
MONTROSE, CO   MOSUNNY   57  23  26 VRB3      30.05R
CORTEZ, CO     CLOUDY    45  33  63 CALM      30.09R
COLORADO CITY    N/A     54  36  50 SE5       30.02S
PAGE, AZ       PTSUNNY   61  25  25 SW7       29.97R
GRAND CANYON   MOSUNNY   49  33  54 SW7       30.10R
KINGMAN, AZ    PTSUNNY   60  36  40 SW10      29.98R
FLAGSTAFF, AZ  CLOUDY    48  32  53 SW10      30.12R

$$

REGIONAL REPORTS    NEVADA/IDAHO/WYOMING

CITY           SKY/WX    TMP DP  RH WIND       PRES   REMARKS
LAS VEGAS, NV  PTSUNNY   64  40  41 SW10      29.89R
ELY, NY          N/A     45  33  63 S12       29.93S
ELKO, NV         N/A     42  37  82 NE3       29.94S
POCATELLO, ID  LGT RAIN  43  43 100 SW3       29.95S
BURLEY, ID     LGT RAIN  45  36  70 S3        29.95R
FORT BRIDGER,  PTSUNNY   41  40  97 CALM      30.03R
EVANSTON, WY   CLOUDY    40  37  89 S9        29.97S WCI  34
ROCK SPRINGS,  CLOUDY    45  34  65 S6        30.01R
KEMMERER, WY     N/A     37  36  93 SW6       29.99F WCI  33

$$



USA.gov is the U.S. government's official web portal to all federal, state and local government web resources and services.